Theta_e
307 308 310 311 315 315 315 314 314 314 314 312 305 296 294 293 293 293 293 293 292 292 291 291 290 290 289 288 288 287 287 286 286 286 286 285 285 284 284 284 284 284 284
307 308 310 312 314 315 313 313 313 313 312 308 299 294 293 293 293 293 293 292 292 291 291 291 290 290 289 288 287 287 286 286 286 286 286 286 285 285 284 284 284 284 284
307 307 309 311 313 313 312 312 312 312 310 305 295 293 293 293 293 292 292 292 291 291 290 291 291 290 289 288 287 287 286 286 286 286 286 285 285 285 285 285 284 284 283
308 307 309 311 311 311 310 311 311 311 309 303 294 292 292 292 292 292 291 290 290 290 291 291 291 289 288 288 287 287 286 286 286 286 285 285 285 285 285 285 285 283 283
308 307 308 310 312 311 309 309 309 309 308 301 293 292 292 291 291 291 290 290 290 291 291 290 290 288 288 287 287 286 286 286 285 285 285 285 285 285 284 284 283 284 283
309 308 307 309 311 311 309 308 308 308 305 297 292 292 291 290 290 290 290 289 289 292 289 290 288 288 287 287 287 286 286 285 285 285 285 284 284 284 284 282 282 281 281
308 307 307 308 309 310 309 308 308 308 305 296 291 291 290 290 290 289 289 288 290 290 289 289 288 287 287 287 286 286 286 285 285 285 284 284 283 283 282 281 280 280 279
308 307 306 306 307 307 308 308 308 306 303 295 291 290 290 290 289 288 288 288 292 287 288 290 288 287 287 286 286 286 285 285 285 283 283 283 282 282 281 280 279 279 278
306 306 305 304 304 305 306 307 306 303 298 292 290 290 289 289 288 288 287 289 293 287 289 291 288 287 286 286 285 285 285 285 284 283 283 283 282 281 280 279 279 278 277
305 304 303 301 301 302 303 304 302 298 294 291 289 289 289 288 287 287 287 291 293 292 291 291 290 286 285 285 285 285 285 285 284 284 284 283 282 281 279 278 278 277 276
302 301 299 298 298 299 300 300 299 295 292 290 289 289 289 288 287 286 289 292 293 293 292 291 289 285 285 285 284 284 285 284 284 284 283 283 281 279 278 277 276 276 275
298 297 296 296 296 296 296 296 295 292 292 290 289 289 290 287 286 289 291 292 292 292 291 291 286 285 285 284 284 284 284 283 282 281 281 280 279 279 278 276 275 275 274
297 295 295 294 294 294 294 293 292 290 291 292 294 293 290 288 289 291 293 292 290 290 291 287 285 285 285 284 284 284 282 281 281 280 280 279 279 277 276 275 274 273 272
296 295 294 293 293 292 292 292 291 292 295 294 293 290 289 290 291 292 293 292 291 290 287 286 285 285 285 284 284 282 281 280 279 279 278 277 276 275 274 273 272 271 271
302 300 299 297 295 294 293 294 294 293 293 292 291 290 292 292 293 293 292 289 288 286 285 285 285 285 284 283 282 281 280 280 279 277 275 274 273 272 271 270 270 269 269
302 301 300 299 297 296 295 295 293 291 291 292 293 293 294 293 290 288 288 287 287 286 286 286 285 284 283 282 281 280 280 277 275 274 273 272 271 270 269 268 267 267 268
297 296 296 295 295 295 294 294 294 293 292 291 290 289 289 289 289 288 288 287 287 286 285 284 283 283 282 282 281 278 276 275 274 273 272 271 270 269 268 267 266 267 267
294 293 293 293 292 292 292 291 291 291 291 290 290 290 289 289 288 288 287 286 285 284 284 283 282 282 281 278 276 275 275 274 273 272 271 270 269 268 267 267 266 266 266
290 290 290 290 290 290 290 290 290 290 289 289 289 288 288 287 286 286 286 285 283 283 282 281 281 278 276 276 275 275 274 273 272 271 269 268 268 268 267 267 266 266 266
289 289 289 289 289 288 288 288 288 288 288 287 286 285 285 284 284 283 283 282 281 281 280 278 276 275 274 274 274 273 273 272 271 270 269 268 268 268 267 267 267 266 266
288 288 288 288 288 288 288 287 287 286 285 285 284 283 283 282 282 281 280 280 280 279 276 275 274 274 273 273 273 272 271 271 269 269 268 268 267 267 267 267 267 266 266
288 288 287 287 287 287 287 286 285 285 284 283 283 282 282 281 280 280 279 278 276 275 274 274 273 273 273 272 271 271 270 270 269 268 268 267 267 267 267 267 266 266 266
287 287 287 287 286 286 285 285 284 284 283 282 281 281 280 279 278 277 275 274 274 273 273 273 272 271 271 270 270 269 269 269 268 268 268 267 267 267 267 266 266 266 266
285 285 285 285 284 284 283 283 282 282 281 280 279 278 277 276 275 274 273 273 272 272 272 272 271 270 269 269 269 268 268 267 267 267 267 267 267 267 266 266 266 265 265
283 283 282 282 282 281 281 280 280 279 278 278 277 276 275 274 273 273 272 272 272 272 271 270 269 269 269 269 269 268 268 268 268 267 266 266 266 265 265 265 265 264 264
280 280 279 279 278 278 277 277 276 275 274 274 273 273 273 273 273 272 272 271 270 270 269 269 269 269 269 269 268 268 268 268 268 267 267 267 266 266 265 265 265 265 265
Wind_Speed
40 41 40 38 39 38 37 37 37 36 40 40 42 42 40 37 33 30 26 22 19 15 12 9 6 5 5 7 7 7 8 9 11 13 16 17 19 20 22 25 28 30 33
37 39 38 37 39 40 38 38 38 38 40 42 44 43 41 37 34 30 27 23 19 15 12 9 6 6 8 8 8 9 10 12 13 16 19 20 22 23 25 28 31 33 35
35 38 39 39 40 41 39 39 39 40 41 43 45 44 41 38 34 30 25 22 19 15 11 7 8 11 10 10 10 11 13 15 17 20 23 23 26 27 30 32 34 36 38
33 39 41 42 41 42 40 39 39 40 41 43 46 44 41 38 34 30 27 23 20 15 12 12 13 13 12 12 13 14 16 18 20 22 26 27 28 30 33 36 38 38 41
34 39 42 42 41 43 41 40 40 41 42 44 48 45 42 39 35 31 28 25 20 16 16 16 16 16 15 16 16 17 19 21 22 25 28 29 30 32 35 37 40 42 43
35 39 42 43 44 44 43 41 42 43 44 47 49 47 44 40 35 31 28 26 21 20 20 18 21 19 19 20 20 21 22 23 25 27 29 30 32 34 35 37 39 40 39
37 38 42 44 46 46 44 44 44 46 46 49 51 48 44 39 35 32 29 26 24 20 25 20 24 24 24 24 24 24 25 26 27 30 32 32 34 36 36 36 36 35 36
38 39 41 44 46 46 46 47 47 47 48 52 50 47 43 38 36 33 30 30 28 25 34 23 25 28 28 27 27 27 28 28 28 30 32 33 35 35 32 31 33 35 42
36 38 39 42 45 46 46 46 45 45 48 50 47 44 42 38 36 33 33 31 32 34 34 31 28 31 30 29 30 30 32 32 31 30 32 34 33 31 23 28 33 37 41
32 33 35 38 41 41 41 42 42 42 44 45 43 41 38 36 35 34 36 35 34 36 32 31 28 33 32 30 31 33 36 35 33 35 34 33 29 29 28 30 31 33 34
24 25 26 29 32 34 36 38 39 40 39 37 37 36 35 33 35 35 39 37 33 33 32 30 31 30 32 32 32 35 35 34 36 36 35 35 33 33 32 32 32 32 34
15 16 17 20 25 29 31 32 33 31 31 33 34 30 30 34 35 39 38 36 33 35 32 31 29 29 32 34 34 33 33 31 30 31 32 33 35 37 37 35 32 34 35
11 12 13 15 19 23 25 28 28 28 30 33 34 31 31 36 40 38 37 34 33 35 33 31 29 32 34 33 33 30 26 28 30 32 34 36 36 36 37 36 34 34 35
12 12 12 12 15 17 19 21 26 30 27 25 26 30 36 40 37 36 35 28 28 33 36 34 33 33 32 32 31 27 28 29 29 30 31 32 36 36 36 35 34 32 33
11 12 12 14 17 20 23 24 26 24 24 25 29 32 34 33 28 24 27 29 29 30 30 32 34 33 32 31 30 28 27 26 26 29 31 32 32 32 32 31 28 26 26
11 12 12 13 15 17 19 22 24 24 25 25 24 24 25 26 26 27 27 27 27 27 30 31 31 30 29 27 26 23 25 28 28 29 28 28 28 27 27 25 23 23 25
10 12 12 13 13 14 16 17 18 20 21 21 20 21 22 22 23 23 24 24 25 27 29 26 25 24 23 21 23 25 27 27 28 27 26 25 25 23 21 20 21 22 24
11 10 10 9 10 10 10 11 12 14 15 18 20 21 22 23 23 23 24 26 23 22 22 22 20 20 21 23 23 24 24 25 25 24 23 21 19 18 18 18 19 21 22
9 9 9 9 9 9 9 11 13 14 15 16 17 17 19 20 21 23 22 19 19 20 20 20 20 21 22 22 22 22 22 22 21 20 19 16 16 16 16 16 17 17 19
6 6 5 6 6 7 9 11 13 15 16 17 17 18 18 19 17 15 17 18 18 19 19 20 20 20 21 21 20 20 19 19 18 17 16 15 15 15 15 16 16 17 17
4 4 5 6 7 8 9 11 13 14 15 16 17 19 20 20 19 19 18 19 20 20 20 20 20 19 19 19 19 18 17 16 15 15 16 15 15 14 15 16 17 16 16
5 5 6 7 8 8 10 11 13 14 14 16 17 19 23 20 20 20 20 20 21 21 21 20 19 18 19 18 18 16 15 14 14 16 16 16 16 16 16 16 17 16 15
4 5 7 8 9 9 10 11 12 13 14 15 16 18 19 18 19 20 21 21 21 21 21 20 19 18 17 17 17 16 15 14 15 16 16 16 16 16 17 16 17 16 15
3 4 6 7 8 8 10 11 12 14 15 16 17 18 20 20 20 21 21 22 21 21 21 20 19 17 17 17 17 16 15 15 16 17 17 17 16 16 16 17 17 17 16
2 4 5 6 8 9 10 12 13 14 16 17 18 19 20 21 21 21 22 22 22 22 21 21 20 19 18 16 16 16 16 16 16 17 17 18 17 17 17 17 16 17 16
4 5 6 7 8 9 10 11 13 14 15 17 19 20 21 22 23 23 23 23 23 23 21 21 21 20 19 18 17 17 17 17 16 17 17 17 16 16 17 16 16 16 15
Wind_Direction
228 230 228 224 220 220 223 227 226 225 222 216 211 206 203 202 202 202 202 202 198 195 191 190 199 226 244 259 270 276 281 282 284 292 300 307 312 316 318 318 320 320 320
229 231 231 226 221 221 225 228 226 224 221 216 211 207 205 204 205 204 205 201 199 195 194 194 211 242 251 259 264 270 277 283 289 294 300 308 313 318 319 318 317 318 317
228 228 230 228 221 222 226 228 227 222 220 215 211 209 207 207 207 206 205 203 198 195 198 217 242 252 254 260 265 272 278 283 289 294 299 307 312 317 317 315 315 316 317
229 228 230 230 224 222 224 227 227 224 221 216 212 211 210 209 208 207 203 201 200 201 215 235 253 250 256 264 270 274 277 282 288 293 297 303 307 313 313 314 313 315 317
234 230 230 231 227 223 224 226 228 227 222 216 212 210 211 210 209 207 206 205 205 215 230 241 249 250 258 268 273 275 277 281 286 290 293 299 306 309 312 313 310 313 316
238 234 231 230 227 227 228 225 229 227 221 214 213 212 210 209 208 209 210 209 202 227 229 246 250 255 263 269 274 275 277 280 285 287 292 296 301 305 309 307 309 311 313
242 236 233 231 229 228 227 228 228 227 221 214 213 212 211 210 210 210 211 208 223 225 239 242 253 259 263 268 273 277 280 284 288 290 291 295 300 303 304 304 302 303 307
244 238 234 233 231 230 227 228 229 226 221 215 213 212 212 211 211 211 211 217 239 225 242 245 251 257 262 268 272 277 280 282 284 282 285 293 294 297 298 301 296 302 307
243 239 236 233 231 229 228 227 227 223 217 214 214 213 212 211 212 213 214 225 248 234 247 252 246 256 262 267 273 278 281 282 283 284 286 288 294 299 285 283 290 296 299
246 241 237 234 232 230 229 227 226 223 218 214 214 215 215 214 215 215 224 242 248 249 250 255 252 258 261 266 272 278 280 285 290 287 287 290 292 293 297 299 299 291 287
242 243 241 237 233 230 228 225 224 220 216 217 216 217 220 216 219 220 238 253 257 255 250 254 258 259 265 269 272 275 280 287 288 291 294 297 299 302 303 300 301 286 288
231 226 226 227 225 223 223 223 221 216 213 216 216 216 221 222 223 236 251 246 254 257 256 262 262 262 265 267 271 277 281 285 285 289 291 291 293 295 298 297 295 290 291
190 192 197 204 210 213 215 215 210 202 212 220 227 224 222 225 235 246 251 238 251 259 265 266 263 263 265 269 275 276 274 275 280 282 286 291 293 294 296 298 296 294 293
157 161 165 181 190 196 199 204 205 216 227 226 224 220 225 236 245 249 245 244 251 254 260 261 264 269 271 272 273 274 277 279 281 286 290 293 298 298 297 297 297 297 293
153 161 167 180 189 192 202 215 222 226 230 230 228 234 242 246 246 242 248 254 257 253 255 257 260 262 265 268 273 276 277 281 286 290 293 296 297 298 299 299 300 297 294
162 166 168 173 180 191 203 209 215 219 228 235 237 240 242 245 246 244 244 247 247 245 248 251 255 258 263 268 270 274 283 290 294 297 299 301 301 302 302 303 300 297 300
152 157 163 169 178 184 191 201 208 212 221 226 228 230 233 237 240 242 245 247 245 245 249 251 253 258 260 267 278 284 290 295 299 303 305 306 306 308 307 304 301 303 306
146 151 156 165 172 181 190 200 207 216 224 226 228 232 235 238 242 245 244 250 251 251 252 256 258 263 271 275 280 286 292 297 302 304 303 302 304 309 311 309 306 305 307
146 152 154 165 174 185 199 211 219 226 230 235 238 239 240 239 241 245 257 256 253 251 253 257 264 268 271 276 281 287 292 297 299 299 300 302 302 305 310 309 308 309 309
156 162 174 192 204 214 225 231 234 234 237 239 240 243 246 252 253 251 250 250 251 254 260 264 265 268 271 276 281 288 293 296 298 300 301 300 299 302 304 304 305 306 307
188 203 217 226 229 234 239 244 245 244 245 245 244 245 247 248 250 252 254 254 258 261 262 263 265 269 273 278 282 286 289 293 296 296 294 294 296 296 296 299 301 301 303
225 230 238 242 245 246 249 249 249 249 247 246 246 245 250 253 255 257 257 258 258 260 262 266 269 272 274 275 278 281 284 289 289 288 290 291 291 291 292 294 295 294 296
251 259 260 262 262 261 259 257 255 253 251 249 248 250 256 256 257 259 261 264 266 269 271 271 270 270 271 273 275 278 283 284 283 284 286 286 288 288 289 290 291 290 291
252 262 268 268 268 268 266 264 261 260 259 259 260 261 263 264 263 262 263 265 268 270 273 273 271 268 268 271 274 278 283 284 283 283 283 284 284 283 283 284 286 286 286
242 248 252 258 262 264 265 268 269 270 270 270 269 269 269 269 271 272 273 274 275 275 274 273 272 272 271 272 275 280 282 284 284 282 282 281 281 281 282 281 281 279 281
252 260 263 265 266 269 271 272 272 271 270 270 270 269 268 269 271 271 272 272 272 271 270 270 271 273 275 276 275 275 276 276 277 278 279 280 281 281 279 278 276 276 275